Tallahassee, FL

9:02 AM EDT on September 24, 2017 (GMT -0400)
Tallahassee Regional

Weather History for KTLH - December, 2013

Change the Weather History Date:

Sunday, December 29, 2013

  Actual Average Record
Temperature  
Mean Temperature 62 °F 51 °F  
Max Temperature 71 °F 63 °F 80 °F (1984)
Min Temperature 52 °F 39 °F 12 °F (1894)
Degree Days  
Heating Degree Days 3    
Month to date heating degree days 208  
Since 1 July heating degree days 375  
Cooling Degree Days 0    
Month to date cooling degree days 53  
Year to date cooling degree days 2850  
Growing Degree Days 12 (Base 50)    
Moisture  
Dew Point 60 °F    
Average Humidity 74    
Maximum Humidity 90    
Minimum Humidity 57    
Precipitation  
Precipitation 1.40 in 0.12 in 1.50 in (1893)
Month to date precipitation 4.89 3.65  
Year to date precipitation 66.77 58.98  
Sea Level Pressure  
Sea Level Pressure 29.93 in    
Wind  
Wind Speed 10 mph (SW)    
Max Wind Speed 21 mph    
Max Gust Speed 28 mph    
Visibility 8 miles    
Events Rain , Thunderstorm    
T = Trace of Precipitation, MM = Missing Value Source: NWS Daily Summary

Daily Weather History Graph

Daily Weather History Graph

Search for Another Location

Airport or City:

Trip Planner

Search our weather history database for the weather conditions in past years. The results will help you decide how hot, cold, wet, or windy it might be!

Date:

Astronomy

Dec. 29, 2013 Rise Set
Actual Time 7:33 AM EST 5:45 PM EST
Civil Twilight 7:06 AM EST 6:12 PM EST
Nautical Twilight 6:37 AM EST 6:42 PM EST
Astronomical Twilight 6:07 AM EST 7:11 PM EST
Moon 4:21 AM EST (12/29) 3:18 PM EST (12/29)
Length of Visible Light 11h 05m
Length of Day
10h 12m
Waning Crescent, 11% of the Moon is Illuminated
Dec 29
Waning Crescent
Jan 1
New
Jan 7
First Quarter
Jan 15
Full
Jan 24
Last Quarter

Hourly Weather History & Observations

Time (EST) Temp. Dew Point Humidity Pressure Visibility Wind Dir Wind Speed Gust Speed Precip Events Conditions
12:49 AM 69.8 °F 64.4 °F 83% 29.88 in 10.0 mi SSE 12.7 mph 24.2 mph 0.07 in Rain Light Rain
12:53 AM 69.1 °F 64.9 °F 87% 29.88 in 8.0 mi SSE 13.8 mph 24.2 mph 0.08 in Rain Light Rain
1:15 AM 68.0 °F 64.4 °F 88% 29.87 in 5.0 mi SSE 12.7 mph 20.7 mph 0.02 in Rain , Thunderstorm Rain
1:32 AM 68.0 °F 64.4 °F 88% 29.88 in 1.8 mi South 11.5 mph 20.7 mph 0.13 in Rain , Thunderstorm Heavy Thunderstorms and Rain
1:43 AM 68.0 °F 64.4 °F 88% 29.87 in 3.0 mi SSE 10.4 mph 19.6 mph 0.29 in Rain Rain
1:53 AM 68.0 °F 64.9 °F 90% 29.88 in 2.5 mi South 9.2 mph 20.7 mph 0.39 in Rain Heavy Rain
2:11 AM 68.0 °F 64.4 °F 88% 29.88 in 4.0 mi South 11.5 mph - 0.17 in Rain Heavy Rain
2:19 AM 68.0 °F 64.4 °F 88% 29.87 in 2.0 mi SSE 18.4 mph 25.3 mph 0.26 in Rain Heavy Rain
2:23 AM 68.0 °F 64.4 °F 88% 29.86 in 1.8 mi SSE 18.4 mph 26.5 mph 0.31 in Rain Heavy Rain
2:28 AM 68.0 °F 64.4 °F 88% 29.86 in 3.0 mi South 17.3 mph 27.6 mph 0.36 in Rain Rain
2:40 AM 69.8 °F 66.2 °F 88% 29.85 in 3.0 mi South 17.3 mph 27.6 mph 0.42 in Rain Heavy Rain
2:53 AM 70.0 °F 66.9 °F 90% 29.86 in 4.0 mi South 19.6 mph 27.6 mph 0.50 in Rain Rain
3:16 AM 69.8 °F 66.2 °F 88% 29.88 in 5.0 mi South 9.2 mph - 0.10 in Rain Light Rain
3:21 AM 69.8 °F 66.2 °F 88% 29.87 in 1.8 mi South 8.1 mph - 0.17 in Rain Heavy Rain
3:25 AM 68.0 °F 66.2 °F 94% 29.86 in 1.5 mi SSE 11.5 mph - 0.31 in Rain Heavy Rain
3:31 AM 68.0 °F 64.4 °F 88% 29.86 in 3.0 mi SSE 13.8 mph - 0.34 in Rain Heavy Rain
3:50 AM 69.8 °F 66.2 °F 88% 29.87 in 7.0 mi South 8.1 mph - 0.40 in Rain Rain
3:53 AM 69.1 °F 66.0 °F 90% 29.86 in 7.0 mi South 9.2 mph - 0.41 in Rain Rain
4:01 AM 69.8 °F 66.2 °F 88% 29.86 in 7.0 mi South 9.2 mph - 0.02 in Rain Rain
4:14 AM 69.8 °F 66.2 °F 88% 29.85 in 10.0 mi South 6.9 mph - 0.03 in Rain Light Rain
4:35 AM 69.8 °F 66.2 °F 88% 29.86 in 10.0 mi SSW 6.9 mph - 0.04 in   Overcast
4:53 AM 69.1 °F 66.0 °F 90% 29.87 in 10.0 mi SSW 9.2 mph - 0.04 in   Overcast
5:11 AM 69.8 °F 64.4 °F 83% 29.89 in 10.0 mi SW 6.9 mph - N/A   Overcast
5:20 AM 69.8 °F 64.4 °F 83% 29.89 in 10.0 mi SW 8.1 mph - N/A   Overcast
5:53 AM 69.1 °F 64.9 °F 87% 29.90 in 10.0 mi SW 8.1 mph - N/A   Overcast
6:28 AM 68.0 °F 64.4 °F 88% 29.91 in 10.0 mi West 8.1 mph - N/A   Overcast
6:53 AM 66.9 °F 63.0 °F 87% 29.93 in 10.0 mi West 8.1 mph - N/A   Overcast
7:53 AM 64.0 °F 61.0 °F 90% 29.94 in 10.0 mi Calm Calm - N/A   Mostly Cloudy
8:53 AM 64.0 °F 59.0 °F 84% 29.97 in 10.0 mi WNW 11.5 mph - N/A   Mostly Cloudy
9:53 AM 64.9 °F 57.0 °F 75% 30.00 in 10.0 mi NW 10.4 mph - N/A   Mostly Cloudy
10:53 AM 64.9 °F 55.0 °F 70% 30.02 in 10.0 mi NW 8.1 mph - N/A   Overcast
11:53 AM 66.9 °F 55.0 °F 66% 30.00 in 10.0 mi NW 8.1 mph - N/A   Mostly Cloudy
12:53 PM 68.0 °F 54.0 °F 61% 29.98 in 10.0 mi NNW 9.2 mph - N/A   Scattered Clouds
1:53 PM 70.0 °F 54.0 °F 57% 29.95 in 10.0 mi NW 5.8 mph - N/A   Scattered Clouds
2:53 PM 70.0 °F 54.0 °F 57% 29.95 in 10.0 mi NW 12.7 mph 18.4 mph N/A   Scattered Clouds
3:53 PM 68.0 °F 53.1 °F 59% 29.95 in 10.0 mi NNW 9.2 mph - N/A   Partly Cloudy
4:53 PM 66.0 °F 52.0 °F 60% 29.97 in 10.0 mi NNW 11.5 mph - N/A   Clear
5:53 PM 60.1 °F 51.1 °F 72% 29.99 in 10.0 mi NNW 9.2 mph - N/A   Partly Cloudy
6:14 PM 59.0 °F 51.8 °F 77% 30.00 in 10.0 mi NW 8.1 mph - N/A   Mostly Cloudy
6:53 PM 57.9 °F 50.0 °F 75% 30.02 in 10.0 mi NW 8.1 mph - N/A   Overcast
7:14 PM 57.2 °F 50.0 °F 77% 30.02 in 10.0 mi NNW 9.2 mph - N/A   Overcast
7:53 PM 57.0 °F 48.9 °F 74% 30.04 in 10.0 mi NW 5.8 mph - N/A   Overcast
8:53 PM 55.0 °F 48.0 °F 77% 30.06 in 10.0 mi NW 10.4 mph - N/A   Overcast
9:53 PM 54.0 °F 46.9 °F 77% 30.07 in 10.0 mi WNW 10.4 mph - N/A   Overcast
10:53 PM 53.1 °F 45.0 °F 74% 30.09 in 10.0 mi NNW 11.5 mph - N/A   Overcast
11:53 PM 53.1 °F 45.0 °F 74% 30.09 in 10.0 mi North 9.2 mph - N/A   Overcast